Probability
0 0 0 0 0 0 0 0 0 0 0 0 0 0 0 0 0 1 6 16 29 40 55 74 88 91 89 89 92 95 98 97 95 91 80 59 36 17 4 0 0 0 0 0
0 0 0 0 0 0 0 0 0 0 0 0 0 0 0 0 0 1 6 18 35 52 70 84 93 95 93 91 91 94 97 97 94 87 72 48 26 11 2 0 0 0 0 0
0 0 0 0 0 0 0 0 0 0 0 0 0 0 0 0 0 1 6 20 43 67 85 95 98 98 96 94 94 96 97 96 90 77 56 31 12 4 0 0 0 0 0 0
0 0 0 0 0 0 0 0 0 0 0 0 0 0 0 0 0 0 4 18 44 73 92 98 99 98 97 98 98 97 96 91 78 58 36 16 5 1 0 0 0 0 0 0
0 0 0 0 0 0 0 0 0 0 0 0 0 0 0 0 0 0 1 11 36 69 91 98 98 97 97 98 97 94 89 77 56 35 18 6 1 0 0 0 0 0 0 0
0 0 0 0 0 0 0 0 0 0 0 0 0 0 0 0 0 0 2 8 28 61 89 98 97 96 96 94 87 79 67 49 30 16 7 2 0 0 0 0 0 0 0 0
0 0 0 0 0 0 0 0 0 0 0 0 0 0 0 1 4 9 14 20 36 65 89 96 96 93 90 81 64 47 33 20 11 5 2 0 0 0 0 0 0 0 0 0
0 0 0 0 0 0 0 0 0 0 0 0 0 0 3 10 24 37 46 51 62 78 90 93 93 86 74 53 31 17 9 4 2 1 0 0 0 0 0 0 0 0 0 0
0 0 0 0 0 0 0 0 0 0 0 0 0 0 4 19 43 67 79 81 83 85 83 78 72 60 41 21 8 3 1 1 0 0 0 0 0 0 0 0 0 0 0 0
0 0 0 0 0 0 0 0 0 0 0 0 0 0 4 15 42 73 88 85 77 68 58 46 34 22 11 4 1 1 0 0 0 0 0 0 0 0 0 0 0 0 0 0
0 0 0 0 0 0 0 0 0 0 0 0 0 2 7 15 36 62 71 62 48 34 23 15 7 2 0 0 0 0 0 0 0 0 0 0 0 0 0 0 0 0 0 0
0 0 0 0 0 0 0 0 0 0 0 0 0 4 17 30 40 46 43 31 18 9 4 1 0 0 0 0 0 0 0 0 0 0 0 0 0 0 0 0 0 0 0 0
0 0 0 0 0 0 0 0 0 0 0 0 0 5 22 39 39 28 18 11 4 1 0 0 0 0 0 0 0 0 0 0 0 0 0 0 0 0 0 0 0 0 0 0
0 0 0 0 0 0 0 0 0 0 0 0 1 5 17 29 28 15 6 2 1 0 0 0 0 0 0 0 0 0 0 0 0 0 0 0 0 0 0 0 0 0 0 0
0 0 0 0 0 0 0 0 0 0 0 2 8 11 13 16 16 10 3 0 0 0 0 0 0 0 0 0 0 0 0 0 0 0 0 0 0 0 0 0 0 0 0 0
0 0 0 0 0 0 0 0 0 1 2 6 15 18 11 9 9 6 3 1 0 0 0 0 0 0 0 0 0 0 0 0 0 0 0 0 0 0 0 0 0 0 0 0
0 0 0 0 0 0 0 0 0 2 4 8 13 13 8 5 5 3 1 0 0 0 0 0 0 0 0 0 0 0 0 0 0 0 0 0 0 0 0 0 0 0 0 0
0 0 0 0 0 0 0 0 0 2 4 6 6 3 2 1 1 1 0 0 0 0 0 0 0 0 0 0 0 0 0 0 0 0 0 0 0 0 0 0 0 0 0 0
0 0 0 0 0 0 0 0 0 0 2 2 2 0 0 0 0 0 0 0 0 0 0 0 0 0 0 0 0 0 0 0 0 0 0 0 0 0 0 0 0 0 0 0
0 0 0 0 0 0 0 0 0 0 0 0 0 0 0 0 0 0 0 0 0 0 0 0 0 0 0 0 0 0 0 0 0 0 0 0 0 0 0 0 0 0 0 0
0 0 0 0 0 0 0 0 0 0 0 0 0 0 0 0 0 0 0 0 0 0 0 0 0 0 0 0 0 0 0 0 0 0 0 0 0 0 0 0 0 0 0 0
0 0 0 0 0 0 0 0 0 0 0 0 0 0 0 0 0 0 0 0 0 0 0 0 0 0 0 0 0 0 0 0 0 0 0 0 0 0 0 0 0 0 0 0
0 0 0 0 0 0 0 0 0 0 0 0 0 0 0 0 0 0 0 0 0 0 0 0 0 0 0 0 0 0 0 0 0 0 0 0 0 0 0 0 0 0 0 0
0 0 0 0 0 0 0 0 0 0 0 0 0 0 0 0 0 0 0 0 0 0 0 0 0 0 0 0 0 0 0 0 0 0 0 0 0 0 0 0 0 0 0 0
0 0 0 0 0 0 0 0 0 0 0 0 0 0 0 0 0 0 0 0 0 0 0 0 0 0 0 0 0 0 0 0 0 0 0 0 0 0 0 0 0 0 0 0
0 0 0 0 0 0 0 0 0 0 0 0 0 0 0 0 0 0 0 0 0 0 0 0 0 0 0 0 0 0 0 0 0 0 0 0 0 0 0 0 0 0 0 0
Wind_Speed
4 4 6 8 7 7 5 5 8 11 11 6 10 14 16 15 9 8 13 17 18 17 14 12 14 14 14 13 13 12 13 11 11 9 9 8 6 5 5 5 7 8 8 8
2 7 11 7 5 5 6 8 11 13 11 5 6 8 9 10 9 10 12 14 15 11 11 14 14 14 14 13 11 10 11 10 10 8 6 5 6 5 5 5 6 7 8 8
12 9 8 7 7 8 9 10 14 13 12 6 2 7 8 8 4 3 8 12 16 21 22 19 16 13 13 12 11 9 10 11 9 10 8 9 6 5 4 5 5 6 8 9
10 11 7 8 11 10 11 13 13 12 8 6 0 3 9 6 7 6 6 6 12 17 19 19 17 14 13 10 9 9 9 9 9 10 11 11 7 6 4 4 4 5 7 8
8 8 11 13 17 13 14 14 9 6 3 3 5 1 9 6 6 9 10 8 9 15 18 17 15 13 11 10 9 9 10 10 10 9 10 9 8 6 6 6 7 6 5 6
10 7 9 13 16 13 13 7 2 5 6 2 5 1 9 7 9 11 9 7 8 14 14 11 10 10 9 9 9 10 11 9 10 11 10 11 12 11 10 7 6 4 3 4
9 11 8 6 7 8 4 4 3 4 4 6 5 2 11 12 10 10 9 5 4 13 15 14 13 12 11 11 10 11 12 10 9 11 10 11 11 11 9 7 6 6 4 3
8 11 8 8 10 9 6 10 10 7 6 6 4 5 8 8 6 5 6 9 12 14 14 13 12 12 12 12 11 12 13 11 10 11 10 9 10 7 6 6 6 6 5 4
9 9 8 9 9 9 6 6 10 9 5 2 5 6 6 8 12 14 15 16 16 15 15 14 13 12 11 11 10 12 13 12 11 12 12 10 9 9 8 8 7 6 5 4
9 5 5 5 3 3 10 9 7 7 7 4 4 3 4 6 5 12 14 15 15 15 15 14 13 13 12 11 11 11 12 12 11 11 10 9 9 8 9 9 9 7 5 4
2 4 4 3 3 3 2 3 5 5 6 8 3 2 5 5 3 12 13 13 13 14 13 13 13 12 12 12 11 11 10 10 10 10 9 9 8 8 8 7 7 6 4 3
4 4 1 2 3 0 5 4 4 4 4 5 6 1 7 5 7 12 13 13 12 12 11 12 12 12 12 12 10 9 9 9 9 8 8 8 7 7 7 7 6 6 5 5
4 6 4 6 8 9 7 5 3 4 4 3 5 3 5 7 10 11 13 12 11 10 10 9 9 10 11 10 9 9 8 8 7 8 8 7 7 7 7 7 6 7 7 7
4 5 4 2 1 4 5 5 2 5 4 3 4 6 2 5 8 8 9 9 9 9 8 8 8 8 9 9 8 8 7 7 7 8 8 8 7 7 7 7 7 6 6 6
5 4 2 1 3 4 5 7 4 1 6 8 8 7 4 3 6 8 9 9 10 9 9 8 7 7 8 8 8 8 7 7 7 8 8 7 6 6 6 6 6 6 5 5
5 3 4 6 8 7 7 9 5 4 4 10 11 7 4 5 7 7 8 10 10 9 9 8 8 8 8 8 8 8 8 7 7 8 7 6 5 5 5 4 5 5 5 5
3 3 3 3 6 6 8 10 7 8 6 6 6 7 7 8 9 5 3 6 8 8 8 8 7 7 7 7 7 8 7 8 8 8 6 4 3 3 3 5 6 5 4 4
2 2 2 2 6 3 1 6 13 14 13 11 13 10 10 10 8 9 8 5 7 8 9 8 8 9 8 7 7 7 8 7 7 5 3 2 2 4 5 6 5 4 3 2
2 4 3 3 1 1 2 5 2 7 6 6 10 11 10 9 7 8 9 8 7 8 8 8 8 8 8 7 7 7 6 5 4 2 2 2 4 5 5 5 3 2 2 2
6 5 4 3 2 2 1 6 2 10 4 1 7 8 8 4 2 2 4 7 8 8 7 8 7 8 7 5 5 5 4 2 2 1 2 4 5 5 5 4 2 2 2 2
6 5 3 2 1 1 3 6 3 4 5 2 5 5 5 3 4 7 7 6 7 8 7 7 7 6 5 4 4 3 2 1 1 2 4 5 5 5 5 3 2 2 3 3
1 2 1 2 1 4 4 4 3 4 3 4 5 5 8 10 10 9 8 8 8 8 7 6 6 5 3 2 2 1 1 1 2 4 5 5 4 5 5 4 3 4 4 4
1 3 3 3 5 3 1 4 3 5 5 4 5 7 12 12 10 9 8 8 6 6 5 5 5 3 1 1 1 1 1 2 3 4 5 5 5 4 4 4 4 3 3 3
3 1 2 2 2 2 3 3 3 3 3 4 7 11 11 11 11 10 9 7 6 5 4 3 3 2 1 1 1 2 1 3 4 5 5 5 5 4 3 3 3 2 1 2
3 3 2 1 0 2 3 3 2 2 3 5 7 8 11 13 12 10 9 7 5 4 3 3 2 2 2 2 2 2 3 5 6 6 5 4 4 3 2 2 2 2 2 2
2 0 1 3 2 2 3 3 2 1 3 7 10 9 9 11 11 10 8 6 5 4 3 3 3 3 4 4 4 4 4 6 6 5 4 3 2 2 2 1 1 2 3 4
Wind_Direction
201 148 216 226 205 195 220 260 274 276 281 287 263 259 264 273 258 204 192 194 197 198 191 178 173 165 161 162 163 165 161 157 146 140 136 130 121 106 89 85 92 94 95 90
233 235 224 219 241 243 249 263 272 282 280 255 261 269 268 270 245 194 184 187 189 176 169 171 168 166 169 167 165 159 158 156 152 145 134 121 117 102 86 83 75 79 86 85
203 230 216 216 240 246 251 239 250 258 283 312 316 322 319 310 300 209 185 181 177 174 174 173 169 169 166 166 165 158 155 151 141 130 117 110 96 84 79 80 76 74 82 81
221 233 231 223 233 227 251 240 236 247 254 276 3 282 294 300 317 302 270 209 185 179 175 172 167 166 163 157 144 139 140 133 129 130 135 138 133 125 115 108 95 85 85 90
231 215 212 231 239 228 235 247 237 233 218 325 344 341 285 308 294 278 273 253 202 184 176 172 166 157 143 135 133 129 125 123 121 120 126 120 114 114 117 108 103 93 86 95
236 239 207 221 239 233 234 234 21 54 69 343 274 275 288 270 250 263 268 260 211 176 165 148 131 124 117 116 116 116 114 113 118 121 123 126 128 131 129 125 123 110 98 93
266 267 252 237 262 278 213 140 40 347 3 259 270 253 254 265 262 253 260 276 174 148 144 136 131 124 116 110 109 110 110 106 110 114 116 124 128 130 133 135 132 129 116 103
229 263 249 230 218 233 224 156 163 189 212 266 313 231 259 304 346 33 68 79 92 106 112 113 111 112 110 108 106 106 105 102 101 102 104 107 108 109 112 116 125 128 121 118
199 243 256 243 231 192 187 187 174 150 176 212 275 276 325 13 49 59 67 76 84 90 93 92 89 89 91 92 93 101 102 97 93 93 94 95 96 97 100 101 104 109 110 114
184 235 280 280 317 265 184 164 110 125 155 219 270 310 321 325 63 81 84 87 86 85 84 81 78 78 81 85 85 84 90 94 92 90 93 96 91 96 101 101 102 105 108 107
129 189 291 18 62 330 43 110 118 134 156 164 202 276 328 301 124 109 100 95 94 91 89 88 88 88 90 89 89 88 87 91 92 91 93 93 94 99 101 104 109 114 111 103
17 122 215 268 284 159 76 63 111 147 231 163 146 217 341 14 101 111 106 101 97 97 98 102 104 105 103 101 98 95 95 95 95 96 93 91 95 100 99 98 96 91 77 57
42 69 43 356 2 10 46 44 73 118 101 105 126 146 12 70 96 106 112 111 108 105 103 104 106 110 108 106 104 100 98 99 97 96 94 92 92 93 93 89 82 74 70 62
74 76 113 142 318 325 336 349 51 100 117 123 142 140 98 101 114 116 116 116 115 114 113 113 112 113 110 107 105 102 94 94 95 91 89 88 88 89 88 85 81 78 75 69
63 65 35 9 355 4 349 343 349 133 164 156 162 138 141 140 137 136 133 129 129 132 131 128 124 117 109 103 97 92 88 85 90 90 85 80 80 81 85 83 79 75 74 76
36 45 32 9 2 2 11 8 34 62 107 123 120 104 94 78 99 111 132 141 141 139 137 130 124 114 105 101 99 92 84 79 83 83 78 74 74 80 84 87 88 85 76 67
8 58 60 350 340 23 15 360 56 59 37 127 129 120 114 83 65 63 111 136 139 141 133 125 117 107 99 93 94 90 86 81 77 75 76 76 80 93 92 97 91 86 78 65
151 90 103 37 38 52 89 56 73 71 52 70 96 106 107 103 82 45 36 92 115 118 119 116 110 102 95 91 87 85 81 80 82 83 83 86 84 86 89 90 89 84 73 65
136 137 110 99 88 301 69 17 48 100 57 70 110 121 128 130 84 45 33 53 86 101 111 112 111 110 104 98 95 92 87 88 94 101 85 74 89 99 95 92 86 75 71 47
34 73 105 111 134 214 327 327 89 104 86 69 125 142 162 172 113 122 81 86 94 99 105 110 109 106 103 96 95 97 97 98 112 104 78 83 95 102 105 108 94 72 77 45
11 24 62 107 170 254 309 317 47 130 194 183 121 129 134 128 138 132 121 110 111 110 109 108 106 103 102 99 96 95 106 160 167 101 99 98 101 107 109 98 76 61 53 41
65 43 21 104 179 249 318 31 92 168 157 114 112 116 119 120 118 125 130 130 127 120 113 109 107 104 105 110 106 97 252 229 122 110 107 105 103 102 101 96 74 56 54 46
112 187 194 190 212 234 44 109 142 142 129 142 144 145 138 137 140 139 141 139 133 128 121 116 117 115 123 185 153 156 240 160 127 116 117 112 100 90 100 106 93 63 49 40
327 353 70 43 36 41 57 71 67 103 135 150 148 148 146 143 144 140 140 139 136 133 131 126 124 139 198 223 199 206 180 121 115 120 123 120 112 104 100 108 116 103 68 38
306 355 28 37 5 39 21 24 30 51 85 111 126 138 143 138 140 140 140 142 144 142 143 148 159 157 162 131 116 103 92 98 104 115 127 131 135 141 140 142 165 161 193 193
325 57 180 228 248 223 268 300 319 126 133 133 124 117 124 132 135 135 137 140 145 157 159 153 144 127 117 107 97 92 95 101 110 117 133 148 155 165 172 187 273 261 225 236